Find Starlink 3176

NORAD ID: 51106 Int'l Des: 2022-005 Owner: SPXS Country: US Constellation: starlink operational
LEOCIRCULAR

現在のビュー

3D地球を読み込み中...

About Starlink 3176

Starlink 3176 (NORAD 51106) is a starlink constellation satellite (v1.5) launched Jan 19, 2022 by SPXS of US. It operates in LEO, CIRCULAR orbit with a mass of 297.00 kg.

次回通過

Passes for default location (London). Set your location on the main map for personalized predictions.

高度履歴

Loading altitude history...

軌道要素

1 51106U 22005C 26264.89439286 .00000656 00000-0 29722-4 0 9994
2 51106 53.1604 119.2364 0001143 90.5690 269.5444 15.35399148258612
Epoch: Sep 21, 2026 • Age: 10 hours

現在のステータス

高度 463.7 km
遠地点 / 近地点 N/A
速度 7.64 km/s
衛星直下点 44.86°N, 138.01°E
打ち上げ日 Jan 19, 2022
運用期間 4.6 years
タイプ internet

技術仕様

分類 Payload
質量 297.00 kg
乾燥質量 275.00 kg
長さ 0.20 m
スパン 9.00 m
形状 ? Box + pan
製造者 SPXS
バスタイプ Starlink
フェーズステータス In Orbit
所有者/国 SPXS/US

Most Searched